Temperature
1 1 1 0 0 0 -0 -0 -0 -1 -0 1 1 2 2 2 2 2 2 2 2 3 3 3 3 3 3 3 3 3 3 3 3 3 3 3 3 3
0 0 0 -0 -0 -0 -0 -0 -1 -1 -1 -0 0 1 1 1 1 1 2 2 2 2 2 2 2 2 2 2 2 2 2 2 2 2 2 2 3 3
-0 -0 -1 -1 -1 -1 -1 -1 -1 -1 -1 -1 -0 0 0 0 1 1 1 1 1 2 2 2 2 2 2 2 2 2 2 2 2 2 2 2 2 2
-1 -1 -1 -1 -1 -1 -1 -1 -1 -2 -2 -2 -1 -1 -1 -0 -0 0 1 1 1 1 1 1 1 1 1 1 1 1 1 1 1 1 1 1 2 2
-1 -1 -1 -2 -2 -2 -2 -2 -2 -2 -2 -2 -2 -1 -1 -1 -1 -0 -0 0 0 0 0 1 1 1 1 1 1 1 1 1 1 1 1 1 1 1
-2 -2 -2 -2 -2 -2 -3 -2 -2 -2 -2 -2 -2 -2 -2 -1 -1 -1 -1 -0 -0 -0 -0 0 0 0 0 1 1 1 1 1 0 0 1 1 1 1
-2 -2 -2 -2 -2 -3 -3 -3 -3 -3 -3 -3 -3 -2 -2 -2 -2 -2 -2 -1 -1 -1 -0 -0 -0 0 0 0 0 0 0 0 0 0 0 0 1 1
-2 -3 -3 -3 -3 -3 -3 -3 -3 -3 -3 -3 -3 -3 -2 -2 -2 -2 -2 -2 -2 -1 -1 -1 -1 -0 -0 -0 -0 -0 -0 -0 -0 -0 -0 0 0 0
-3 -3 -3 -3 -3 -3 -3 -3 -3 -3 -3 -3 -3 -3 -3 -3 -3 -3 -2 -2 -2 -2 -2 -1 -1 -1 -1 -1 -1 -0 -0 -1 -1 -1 -0 -0 -0 -0
-3 -3 -3 -3 -3 -3 -3 -3 -3 -3 -3 -3 -3 -3 -3 -3 -3 -3 -3 -3 -2 -2 -2 -2 -1 -1 -1 -1 -1 -1 -1 -1 -1 -1 -1 -1 -0 -0
-3 -3 -3 -3 -3 -3 -3 -3 -3 -3 -3 -3 -3 -3 -3 -3 -3 -3 -3 -3 -3 -2 -2 -2 -2 -2 -1 -1 -1 -1 -1 -1 -1 -1 -1 -1 -1 -1
-3 -3 -3 -4 -4 -4 -4 -4 -4 -3 -3 -3 -3 -3 -3 -3 -3 -3 -3 -3 -3 -3 -3 -3 -3 -3 -2 -2 -2 -2 -2 -2 -2 -2 -2 -2 -1 -1
-4 -4 -4 -4 -4 -4 -4 -4 -4 -4 -4 -4 -4 -3 -3 -3 -3 -3 -3 -4 -3 -3 -3 -3 -3 -3 -3 -3 -2 -2 -2 -2 -2 -2 -2 -2 -2 -2
-4 -4 -4 -4 -4 -4 -4 -4 -4 -4 -4 -4 -4 -4 -4 -4 -4 -4 -4 -4 -3 -3 -3 -3 -3 -3 -3 -3 -3 -3 -3 -3 -3 -2 -2 -2 -2 -2
-4 -4 -4 -4 -4 -4 -4 -5 -5 -5 -5 -5 -5 -4 -4 -4 -4 -4 -4 -4 -3 -3 -3 -3 -3 -3 -3 -3 -3 -3 -3 -3 -3 -3 -3 -3 -3 -3
-5 -4 -4 -4 -4 -5 -5 -5 -5 -5 -5 -5 -5 -5 -4 -4 -4 -4 -4 -4 -4 -3 -3 -3 -3 -3 -3 -3 -3 -3 -3 -4 -4 -4 -3 -3 -3 -3
-5 -5 -5 -5 -5 -5 -5 -5 -5 -5 -5 -5 -5 -5 -5 -5 -5 -4 -4 -4 -4 -4 -4 -4 -4 -4 -4 -4 -4 -4 -4 -4 -4 -4 -4 -4 -3 -3
-5 -5 -5 -5 -5 -5 -5 -5 -5 -5 -5 -5 -5 -5 -5 -5 -5 -5 -5 -5 -4 -4 -4 -4 -4 -4 -4 -4 -4 -4 -4 -4 -4 -4 -4 -4 -4 -3
-5 -5 -5 -5 -6 -6 -6 -6 -6 -6 -6 -5 -5 -5 -5 -5 -5 -5 -5 -5 -5 -5 -5 -4 -4 -4 -4 -5 -5 -4 -4 -4 -4 -4 -4 -4 -4 -4
-6 -6 -6 -6 -6 -6 -6 -6 -6 -6 -6 -6 -6 -6 -6 -5 -5 -5 -5 -5 -5 -5 -5 -5 -5 -5 -5 -5 -5 -5 -5 -5 -5 -5 -5 -5 -4 -4
-6 -6 -6 -6 -6 -6 -6 -6 -6 -6 -6 -6 -6 -6 -6 -6 -6 -6 -6 -5 -5 -5 -5 -5 -5 -5 -5 -5 -5 -5 -5 -5 -5 -5 -5 -5 -5 -4
-6 -6 -6 -6 -6 -6 -6 -6 -6 -6 -6 -6 -6 -6 -6 -6 -6 -6 -6 -6 -6 -6 -5 -5 -5 -5 -5 -5 -6 -6 -5 -5 -5 -5 -5 -5 -5 -5
-6 -6 -6 -6 -6 -6 -6 -6 -6 -6 -6 -6 -6 -6 -6 -6 -6 -6 -6 -6 -6 -6 -6 -6 -6 -5 -5 -5 -6 -6 -6 -6 -5 -5 -5 -5 -5 -5
Wind_Speed
4 4 4 3 3 4 4 4 5 8 8 5 3 3 5 7 9 9 9 12 13 14 14 13 13 13 13 13 13 13 13 12 11 12 12 13 14 14
3 4 4 4 3 3 4 4 5 7 8 5 5 5 6 8 10 9 10 12 13 14 14 14 13 13 13 12 12 12 12 11 11 12 13 13 14 15
4 5 5 5 4 4 4 4 5 5 9 8 5 5 6 7 8 8 9 9 10 13 14 14 13 12 12 11 11 11 11 11 12 12 13 13 14 14
5 6 6 5 5 5 4 5 5 6 7 10 7 5 6 6 7 7 7 8 9 12 13 14 13 11 11 10 10 10 10 10 11 12 12 13 13 13
6 7 7 6 7 6 6 6 6 6 6 8 9 6 5 5 6 6 7 6 8 10 11 12 11 10 10 10 10 9 9 9 10 10 10 11 11 12
7 7 7 7 8 7 7 7 6 6 6 7 8 7 6 5 4 5 6 5 6 7 8 9 9 10 9 9 9 8 8 8 9 9 9 9 10 10
6 7 7 8 10 8 7 7 6 6 6 7 7 7 6 5 5 4 6 6 6 5 5 5 5 5 6 8 8 7 7 8 8 8 8 8 8 8
7 7 7 8 9 11 13 12 10 9 8 7 7 8 8 6 5 5 6 6 6 3 3 5 3 4 5 5 7 8 8 8 7 6 6 7 7 7
6 6 6 7 8 7 10 11 11 13 12 9 9 9 8 6 5 6 6 6 7 4 4 6 4 4 4 6 8 8 7 6 6 5 6 6 6 6
6 6 7 7 7 7 6 7 7 8 9 8 8 8 7 6 5 6 6 6 6 4 3 4 4 4 4 4 7 6 5 5 5 5 5 5 6 6
5 5 6 6 9 9 6 6 7 7 7 8 9 8 9 9 7 4 4 4 5 4 2 2 3 3 3 3 3 4 4 4 4 4 4 5 5 5
4 5 7 7 9 8 6 5 7 6 5 6 6 6 6 7 8 5 5 4 4 3 2 1 2 2 2 2 2 3 3 3 3 4 5 5 5 3
4 4 4 8 9 8 7 5 7 6 4 4 4 4 4 4 4 4 4 5 5 4 2 1 2 1 2 2 2 2 1 2 3 3 4 5 5 3
4 4 4 7 7 7 6 6 6 5 3 3 3 3 3 4 3 4 4 4 5 5 5 3 2 3 2 2 2 1 1 2 2 2 3 4 5 5
4 6 6 6 6 5 5 5 4 3 2 3 3 3 3 4 3 3 3 2 3 3 4 3 3 3 3 3 2 1 1 2 2 1 2 3 3 3
4 4 5 5 4 4 5 4 3 3 3 3 3 3 3 3 3 2 2 2 2 2 3 3 2 2 2 2 2 2 1 1 2 2 2 2 3 3
3 2 2 2 2 3 3 3 3 3 3 3 3 3 3 3 3 3 2 2 1 2 2 2 2 0 1 1 1 1 1 1 1 2 2 2 3 3
2 2 2 2 3 3 3 3 3 3 3 3 3 3 3 3 3 3 2 1 1 1 1 1 1 1 1 1 1 1 1 1 1 1 1 2 3 3
2 2 2 2 3 3 3 3 3 3 3 3 3 3 3 3 3 3 2 2 2 2 1 1 0 0 0 1 2 1 1 1 1 2 1 2 3 4
2 2 3 3 3 3 3 3 3 3 3 3 3 3 3 3 3 3 2 2 2 1 2 1 1 1 1 1 1 2 2 1 1 2 2 2 2 4
2 3 3 3 3 3 3 3 3 3 3 3 3 3 3 2 3 3 2 3 2 1 1 2 2 2 0 1 0 1 1 2 1 1 1 1 2 2
3 3 3 3 3 3 4 3 3 3 3 3 3 3 3 2 3 3 2 2 2 1 1 1 1 1 1 1 0 1 1 2 3 3 2 2 2 1
3 3 3 3 3 3 3 3 4 3 3 3 3 3 2 2 2 2 2 2 1 1 1 1 1 1 1 1 1 0 1 2 2 2 3 4 3 3
Wind_Direction
247 248 256 262 256 259 258 252 264 281 283 272 280 286 303 302 302 304 308 306 304 304 302 298 296 294 292 292 292 291 287 284 284 284 285 284 283 282
255 256 261 263 260 258 257 259 256 263 274 276 274 287 294 296 296 300 300 303 302 300 298 296 294 294 291 290 291 288 283 282 282 281 282 284 283 281
266 265 264 261 261 257 255 256 257 258 270 281 275 281 283 286 295 296 296 296 298 298 297 294 291 289 288 288 289 286 285 284 283 282 283 283 282 282
265 266 266 267 264 262 258 257 258 257 263 278 286 285 279 282 283 285 293 296 295 296 296 293 291 287 286 286 288 287 285 282 282 283 285 285 284 283
259 258 259 260 262 264 263 261 261 265 262 270 281 282 281 283 288 291 286 286 293 295 294 292 291 291 289 289 287 286 284 282 283 286 288 291 290 287
262 258 258 257 259 264 266 263 263 265 266 269 276 281 280 280 275 285 294 289 289 296 291 292 294 294 292 291 289 287 287 288 289 291 292 293 295 291
267 265 263 264 267 270 272 269 267 266 267 270 274 278 278 280 278 278 287 293 286 272 278 284 289 289 291 291 292 290 288 291 292 291 292 294 295 296
268 272 272 271 273 277 276 276 272 268 265 264 269 269 273 270 269 275 285 291 287 272 276 288 276 275 282 282 288 291 289 289 289 292 296 298 299 302
260 265 274 276 283 276 279 282 278 271 265 262 265 266 268 268 269 273 273 278 275 278 282 282 280 276 281 281 288 292 291 287 289 296 299 301 301 305
260 259 264 270 273 279 279 281 278 276 272 267 261 264 266 264 257 262 272 279 281 276 261 272 285 281 287 287 283 289 298 297 297 307 309 308 309 309
273 270 269 270 277 286 285 284 287 288 285 279 276 272 275 275 272 273 277 282 286 283 259 256 278 292 290 281 292 303 314 311 307 317 323 322 321 321
283 280 278 280 285 290 283 281 286 292 296 300 294 288 288 284 278 258 249 260 275 277 251 252 262 299 302 286 288 318 322 321 326 327 331 332 332 341
286 284 283 293 294 296 294 281 284 298 298 296 296 296 292 285 279 275 254 245 255 260 252 245 246 255 254 285 301 299 310 320 330 329 330 335 335 340
287 286 288 302 306 305 303 301 305 311 304 300 300 303 302 296 292 287 275 268 258 256 254 247 238 237 242 261 272 290 302 312 324 325 329 335 335 331
291 297 302 309 315 313 316 323 325 314 305 306 305 304 302 297 300 303 301 299 298 291 275 256 241 241 232 240 249 252 293 313 326 327 330 330 321 323
301 303 304 312 324 330 333 333 327 314 306 294 297 302 311 310 303 299 291 303 316 315 316 301 264 242 242 244 233 244 255 279 318 327 332 331 333 332
307 308 318 324 332 333 332 331 330 330 325 315 308 312 314 315 313 312 295 295 296 309 326 340 340 308 232 228 233 245 258 270 294 323 340 333 330 334
338 323 320 317 319 321 323 326 324 321 320 315 313 313 310 312 316 320 317 314 307 307 312 312 348 32 36 14 305 232 262 278 309 326 331 326 325 334
350 327 316 314 315 318 316 317 315 313 313 313 309 309 310 312 314 317 320 327 332 322 310 290 282 116 32 326 338 346 232 285 321 327 332 312 301 310
337 322 316 314 311 309 308 308 310 314 316 315 313 309 308 311 314 313 316 320 322 329 336 328 281 236 213 236 275 310 294 238 260 300 314 311 301 306
323 318 313 308 306 304 302 300 301 304 308 311 310 309 307 309 307 308 311 315 317 322 327 316 300 311 356 95 70 328 327 321 296 273 286 304 314 323
310 304 302 301 303 302 301 302 303 303 305 307 308 305 303 304 303 307 312 321 324 319 316 320 344 25 83 117 175 305 335 346 351 358 329 275 249 257
305 301 299 300 300 300 300 301 300 301 300 302 306 306 305 308 307 306 315 322 331 337 343 345 4 33 68 140 162 314 342 347 356 359 345 345 318 275
Height
1480 1480 1479 1478 1478 1477 1477 1477 1476 1471 1467 1466 1466 1466 1465 1464 1463 1461 1460 1458 1457 1456 1454 1453 1452 1451 1450 1449 1448 1447 1446 1445 1445 1444 1443 1442 1442 1441
1475 1474 1474 1473 1472 1472 1471 1471 1470 1468 1463 1460 1461 1461 1460 1459 1458 1456 1454 1453 1452 1450 1449 1447 1446 1445 1444 1443 1442 1441 1440 1440 1439 1438 1437 1436 1435 1435
1470 1469 1468 1468 1467 1467 1466 1465 1464 1463 1459 1455 1456 1455 1454 1453 1452 1451 1449 1447 1446 1445 1443 1442 1440 1439 1438 1437 1436 1435 1434 1434 1433 1432 1431 1430 1429 1429
1465 1464 1463 1463 1462 1461 1460 1459 1458 1457 1455 1451 1449 1449 1449 1448 1446 1445 1443 1442 1440 1439 1437 1436 1434 1433 1432 1431 1430 1429 1428 1427 1427 1426 1425 1424 1423 1422
1460 1459 1458 1458 1456 1456 1455 1453 1452 1451 1450 1447 1444 1444 1443 1442 1441 1439 1438 1436 1435 1433 1432 1431 1429 1428 1426 1425 1424 1423 1423 1422 1421 1420 1419 1419 1417 1416
1455 1454 1453 1452 1451 1450 1449 1448 1447 1445 1444 1442 1440 1439 1438 1437 1436 1434 1432 1431 1429 1428 1427 1425 1424 1423 1421 1420 1419 1418 1417 1416 1416 1415 1414 1413 1412 1411
1449 1449 1448 1447 1445 1444 1443 1442 1441 1440 1439 1437 1435 1434 1432 1431 1430 1429 1427 1425 1424 1423 1421 1420 1419 1417 1416 1415 1414 1413 1412 1412 1411 1410 1409 1409 1408 1407
1444 1443 1442 1441 1440 1439 1438 1437 1437 1435 1433 1432 1430 1429 1427 1427 1426 1425 1423 1421 1418 1418 1416 1415 1414 1412 1411 1410 1409 1408 1407 1407 1406 1406 1405 1404 1404 1403
1439 1438 1437 1436 1435 1434 1432 1431 1430 1429 1429 1427 1425 1423 1423 1422 1422 1420 1419 1417 1415 1414 1413 1410 1409 1407 1407 1406 1405 1404 1403 1403 1402 1401 1401 1400 1400 1399
1435 1433 1432 1431 1430 1429 1427 1426 1424 1423 1422 1421 1420 1419 1418 1418 1417 1416 1415 1413 1411 1410 1409 1406 1404 1403 1403 1402 1401 1400 1400 1399 1398 1398 1397 1397 1396 1395
1431 1429 1428 1426 1425 1424 1423 1421 1419 1418 1417 1416 1415 1414 1413 1413 1413 1412 1410 1409 1406 1405 1404 1403 1401 1400 1399 1398 1397 1397 1396 1395 1395 1395 1394 1394 1393 1392
1427 1425 1424 1423 1421 1420 1418 1417 1415 1413 1412 1410 1410 1409 1409 1408 1408 1407 1406 1405 1403 1401 1400 1399 1398 1397 1395 1395 1394 1394 1393 1393 1392 1392 1391 1391 1390 1390
1423 1422 1420 1419 1418 1416 1415 1413 1411 1410 1408 1406 1405 1404 1404 1403 1403 1402 1402 1401 1399 1398 1397 1396 1395 1393 1393 1392 1391 1391 1391 1390 1390 1389 1389 1388 1388 1387
1420 1418 1417 1416 1415 1413 1411 1409 1408 1406 1405 1403 1402 1400 1399 1399 1398 1398 1397 1396 1395 1394 1393 1392 1391 1390 1389 1389 1388 1388 1388 1388 1387 1387 1387 1386 1385 1384
1417 1415 1414 1413 1411 1410 1408 1406 1405 1403 1402 1400 1398 1397 1396 1395 1395 1394 1393 1392 1391 1391 1390 1389 1388 1387 1387 1386 1385 1385 1385 1385 1385 1385 1384 1383 1382 1382
1413 1412 1411 1410 1408 1407 1405 1404 1402 1401 1399 1398 1396 1395 1394 1393 1392 1391 1390 1389 1388 1387 1387 1386 1385 1385 1384 1384 1383 1382 1382 1382 1382 1382 1381 1381 1380 1380
1411 1409 1408 1407 1405 1404 1402 1401 1400 1398 1397 1395 1394 1393 1391 1390 1389 1388 1387 1386 1385 1384 1384 1384 1383 1383 1383 1382 1381 1381 1380 1380 1381 1380 1379 1378 1378 1378
1408 1407 1405 1404 1403 1401 1400 1399 1397 1396 1395 1393 1392 1391 1389 1388 1387 1386 1385 1384 1383 1383 1382 1382 1382 1381 1381 1381 1381 1380 1379 1379 1379 1379 1378 1377 1376 1376
1406 1405 1403 1402 1401 1400 1398 1397 1395 1394 1393 1392 1390 1389 1388 1387 1386 1385 1384 1383 1382 1381 1381 1381 1380 1380 1379 1378 1379 1380 1379 1378 1377 1377 1377 1376 1375 1374
1404 1403 1401 1400 1399 1398 1396 1395 1394 1393 1391 1390 1389 1388 1387 1385 1384 1383 1383 1382 1381 1380 1380 1380 1379 1379 1378 1378 1377 1378 1378 1377 1376 1376 1376 1375 1374 1374
1402 1401 1400 1398 1397 1396 1395 1393 1392 1391 1390 1388 1387 1386 1385 1384 1383 1383 1382 1381 1380 1379 1379 1378 1378 1379 1378 1377 1376 1376 1376 1376 1376 1376 1375 1374 1373 1372
1401 1399 1398 1397 1396 1394 1393 1392 1391 1389 1388 1387 1386 1385 1384 1383 1382 1381 1381 1380 1379 1379 1378 1378 1378 1378 1377 1376 1375 1375 1375 1375 1375 1375 1375 1374 1373 1371
1399 1398 1396 1395 1394 1393 1391 1390 1389 1388 1387 1386 1385 1383 1383 1382 1381 1381 1380 1380 1379 1378 1378 1377 1377 1377 1376 1376 1375 1375 1374 1374 1374 1373 1373 1373 1372 1371